DELTA 1 R/B, 3616

Orbit data source: Space-Track

DELTA 1 R/B, 3616 is space debris in SSO originally from a launch on Sun, 15 Dec 1968 UTC launched from the Air Force Western Test Range (AFWTR). Debris objects in space refer to the collection of defunct objects orbiting the Earth. Examples of debris include non-operational satellites, rocket bodies, and fragments generated from explosions, collisions, or faulty payload assembly.

Loading next visibility...
Identifier
3616, 1968-114B
Orbit
SSO
Country
Flag of USUS
Related business
Manufacturer
Aerojet
Mission
Spacecraft
Bus & Motor
ABLESTAR, Unknown motor
Mass
~785 kg wet, ~785 kg dry
Launch date (UTC)
1968-12-15 (57 years ago)
Launch vehicle
Unknown
Launch site
Air Force Western Test Range (AFWTR)
Object type
Payload
Rocket body
Debris
Shape & HBR
Unknown
Radar Cross Section
Large (>1 m²)

Expand to show TLE details & history
Last TLE update: 14 hours ago

TLE from 14 hours ago
0 DELTA 1 R/B
1 03616U 68114B   26036.85946060 -.00000022  00000-0  14663-3 0  9999
2 03616 101.6704 345.7512 0013166 278.4222 142.9878 12.51399615612176
Epoch: 2026-02-05T20:37Z
TLE epoch observation values (Epoch: 2026-02-05T20:37:37.395Z)
Latitude
59.48181°
Longitude
-120.06698°
Altitude
1,476.799 km
Speed
7.127 km/s
True Right ascension
21h 41m 22s
True Declination
59° 20' 42"
Sunlit
Object was in daylight at epoch
Visualization orbit readout
Latitude
Unknown
Longitude
Unknown
Altitude
Unknown
Speed
Unknown
Apparent Right ascension
Unknown
Apparent Declination
Unknown
Sunlit
N/A
Visualization observer readout
Local Sidereal Time
13:12:56
Azimuth
Unknown
Elevation
Unknown
Doppler factor
Unknown
Orbital elements
Apogee altitude
1,466.501 km
Perigee altitude
1,445.872 km
Semi-major axis
7,834.324 km
Eccentricity
0.00132
Inclination
101.6704°
RAAN
345.7512°
Arg. of periapsis
278.4222°
True anomaly
143.0785°
Mean anomaly
142.9878°
Eccentric anomaly
143.03316°
Mean motion
3.12998 °/min
Orbital period
115.02 mins
BSTAR
0.00014663
Loading maneuver chart data...
Computing Atmospheric mass density...
Loading historical data...
Loading historical data...
Loading historical data...
Loading historical data...
Loading historical data...
Loading historical data...
Loading historical data...

Documentation

Showing up to 5 results
|